Home > Time Zones > World Clock > Weather > Chad > Sarh > Past weeks

Flag for Chad Weather past 2 weeks in Sarh, Chad

Now
84 °F

Clear.


Feels Like: 83 °F
Forecast: 74 / 103 °F
Wind: No wind

Location: Sarh Airport

Current Time: Feb 1, 2015 at 9:10:26 PM

Latest Report: Feb 1, 2015 at 8:00 PM


Visibility: 10 mi

Pressure: 29.83 "Hg

Humidity: 37%

Dew point: 55 °F

Location of SarhLocation

Historic Weather in Sarh — Graph

°F

Sarh temperature yesterday

Maximum temperature yesterday: 102 °F (at 3:00 PM)
Minimum temperature yesterday: 64 °F (at 6:00 AM)
Average temperature yesterday: 84 °F

Past Weeks' High & Low Weather Summary

 TemperatureHumidityPressure
High104 °F (Jan 24, 4:00 PM)100% (Jan 22, 3:00 AM)30.04 "Hg (Jan 22, 3:00 AM)
Low50 °F (Jan 22, 3:00 AM)6% (Jan 22, 3:00 PM)29.53 "Hg (Jan 28, 4:00 AM)
Average82 °F27%29.87 "Hg
* Reported Jan 17 7:00 PM — Feb 1 7:00 PM, Sarh, Weather by CustomWeather, © 2014

Note: Actual official high and low records may vary slightly from our data, if they occured in-between our weather recording intervals... More about our weather records

Advertising

Sarh weather history for previous 24 hours

 ConditionsComfort  
Time TempWeatherWind HumidityBarometerVisibility
7:00 PM
Feb 1
88 °FPleasantly warm.No wind27%29.77 "HgN/A
6:00 PM95 °FExtremely hot.No wind25%29.77 "HgN/A
5:00 PM102 °FExtremely hot.7 mph16%29.74 "HgN/A
4:00 PM95 °FExtremely hot.9 mph18%29.74 "HgN/A
3:00 PM104 °FExtremely hot.12 mph15%29.77 "HgN/A
2:00 PM104 °FExtremely hot.16 mph9%29.80 "HgN/A
1:00 PM102 °FExtremely hot.12 mph10%29.89 "HgN/A
12:00 PM100 °FSunny.7 mph9%29.92 "Hg10 mi
11:00 AM97 °FSunny.9 mph9%29.95 "Hg10 mi
10:00 AM90 °FSunny.12 mph10%29.95 "Hg10 mi
9:00 AM82 °FSunny.7 mph14%29.92 "Hg10 mi
8:00 AM75 °FSunny.5 mph22%29.92 "Hg10 mi
7:00 AM70 °FMild.7 mph43%29.92 "HgN/A
6:00 AM68 °FMild.No wind26%29.89 "HgN/A
5:00 AM70 °FMild.No wind33%29.83 "HgN/A
4:00 AM72 °FMild.No wind36%29.89 "HgN/A
3:00 AM73 °FClear.5 mph23%29.86 "Hg10 mi
2:00 AM75 °FClear.5 mph22%29.86 "Hg10 mi
1:00 AM75 °FMild.No wind27%29.89 "HgN/A
12:00 AM79 °FClear.7 mph18%29.89 "Hg10 mi
11:00 PM
Jan 31
79 °FPleasantly warm.7 mph18%29.89 "HgN/A
10:00 PM81 °FPleasantly warm.No wind21%29.89 "HgN/A
9:00 PM81 °FPleasantly warm.No wind30%29.89 "HgN/A
Weather by CustomWeather, © 2014

See weather overviewHow to use our weather pages